Terminal Aerodrome Forecast
Issued by NWS Boston, MA

Home | Current Version | Previous Version | Text Only | Print | Product List | Glossary On
Versions: 1 2 3 4 5 6 7 8 9 10 11 12 13 14 15 16 17 18 19 20 21 22 23 24 25 26 27 28 29 30 31 32 33 34 35 36 37 38 39 40 41 42
000
FTUS41 KBOX 022334
TAFORH
TAF
KORH 022334Z 0300/0324 27010G20KT P6SM FEW060 SCT100
     FM030200 27010G20KT P6SM SCT060 BKN100
     FM031100 30011G23KT P6SM SCT080 SCT250
     FM031600 31012G24KT P6SM SCT040
     FM031800 31011G22KT P6SM BKN040=

USA.gov is the U.S. government's official web portal to all federal, state and local government web resources and services.